Westwego, Louisiana
Current Conditions -  °F | °C
As of 7:35 AM on Saturday 22 Nov 2014 (Local Time) from KVSH Reporting Station
Clear Clear  
Wind Chill: 57°   Ceiling: Unl
Heat Index: 57°   Visibility: 10mi
Dew Point: 48°   Wind: 7mph
Humidity: 72%   Direction: 40°NE
Pressure: 30.22"   Gusts: NA
Location:  29.91°N, 90.14°W
Report Text: KVSH 221335Z AUTO 04006KT 10SM CLR 14/09 A3022 RMK AO1
Loading
Personal Weather Stations






























Interactive Weather Map New forecast layout! Learn more

10-Day Weather Forecast

Advertisements
Track Severe Weather on mobile